Location: Springville
(37.3745°N, 89.2676°W)
Time: 14:25:24
(UTC+00:00)

ERS-2 - Pass Details

Date: 29 October 2020
Orbit: 493 x 497 km, 98.6° (Epoch: 03 December)

Event Time Altitude Azimuth Distance (km) Brightness Sun altitude
Rises 23:32:06 0° 11° (N) 2,582 5.5 -6.7°
Reaches altitude 10° 23:34:11 10° 10° (N) 1,696 4.6 -7.1°
Maximum altitude 23:37:49 76° 284° (WNW) 514 2.3 -7.8°
Drops below altitude 10° 23:41:26 10° 199° (SSW) 1,685 5.2 -8.5°
Sets 23:43:30 0° 198° (SSW) 2,563 6.2 -8.9°
